User: anonymous   Login
Location: Gipe Farm
(40.9466°N, 95.5370°W)
Time: 01:49:53
(UTC-05:00)
Language:

Cosmos 2082 Rocket - Orbit

View from above orbital plane
View from above orbital plane
View from above satellite
View from above satellite

Ground track
Ground track

The orbit data is extracted from the following two-line orbital elements,

1 20625U 90046B   15241.11564328 -.00000254  00000-0 -10748-3 0  9993
2 20625 070.9984 090.2577 0013537 017.2897 125.6131 14.14583071304771
Epoch (UTC): 29 August 2015 02:46:31
Eccentricity: 0.0013537
inclination: 70.9984°
perigee height: 834 km
apogee height: 853 km
right ascension of ascending node: 90.2577°
argument of perigee: 17.2897°
revolutions per day: 14.14583071
mean anomaly at epoch: 125.6131°
orbit number at epoch: 30477

The dashed part of the orbit path shows where the satellite is in the earth's shadow,  

DLR